| time (UTC) | temp C | wind direction | speed KPH | gust KPH | rain 1hr cm | rain 24hr cm | rain mn cm | humidity % | barometer mb |
| 20260503224714 | 7 | 0.0 | 0.0 | 0.00 | 0.00 | 0.00 | 71 | 1007.9 | |
| 20260503222713 | 7 | 0.0 | 0.0 | 0.00 | 0.00 | 0.00 | 73 | 1007.9 | |
| 20260503220713 | 6 | 0.0 | 0.0 | 0.00 | 0.00 | 0.00 | 74 | 1008.0 | |
| 20260503214713 | 6 | 0.0 | 0.0 | 0.00 | 0.00 | 0.00 | 74 | 1008.2 | |
| 20260503212712 | 6 | 0.0 | 0.0 | 0.00 | 0.00 | 0.00 | 75 | 1008.2 | |
| 20260503210713 | 6 | 0.0 | 0.0 | 0.00 | 0.00 | 0.00 | 75 | 1008.2 | |
| 20260503204713 | 7 | 0.0 | 0.0 | 0.00 | 0.00 | 0.00 | 77 | 1008.2 | |
| 20260503202713 | 6 | 0.0 | 0.0 | 0.00 | 0.00 | 0.00 | 79 | 1008.2 | |
| 20260503200713 | 7 | 0.0 | 0.0 | 0.00 | 0.00 | 0.00 | 77 | 1008.2 | |
| 20260503194712 | 7 | 0.0 | 0.0 | 0.00 | 0.00 | 0.00 | 78 | 1008.3 | |
| 20260503192712 | 7 | 0.0 | 0.0 | 0.00 | 0.00 | 0.00 | 77 | 1008.2 | |
| 20260503190712 | 8 | 0.0 | 0.0 | 0.00 | 0.00 | 0.00 | 76 | 1008.4 | |
| 20260503184713 | 8 | 0.0 | 0.0 | 0.00 | 0.00 | 0.00 | 74 | 1008.3 | |
| 20260503182712 | 9 | 0.0 | 0.0 | 0.00 | 0.00 | 0.00 | 72 | 1008.2 | |
| 20260503180712 | 9 | 0.0 | 0.0 | 0.00 | 0.00 | 0.00 | 70 | 1008.1 | |
| 20260503174712 | 10 | 0.0 | 0.0 | 0.00 | 0.00 | 0.00 | 69 | 1008.1 | |
| 20260503172718 | 10 | 0.0 | 0.0 | 0.00 | 0.00 | 0.00 | 68 | 1008.1 | |
| 20260503170712 | 10 | 0.0 | 0.0 | 0.00 | 0.00 | 0.00 | 67 | 1008.2 | |
| 20260503150711 | 11 | 0.0 | 0.0 | 0.00 | 0.00 | 0.00 | 70 | 1008.7 | |
| 20260503130711 | 10 | 0.0 | 0.0 | 0.00 | 0.00 | 0.00 | 76 | 1009.0 | |
| 20260503110710 | 11 | 0.0 | 0.0 | 0.00 | 0.00 | 0.00 | 69 | 1008.9 | |
| 20260503080710 | 10 | 0.0 | 0.0 | 0.00 | 0.00 | 0.00 | 76 | 1008.7 | |
| 20260503072710 | 10 | 0.0 | 0.0 | 0.00 | 0.00 | 0.00 | 73 | 1008.2 | |
| 20260503070710 | 9 | 0.0 | 0.0 | 0.00 | 0.00 | 0.00 | 74 | 1007.9 | |
| 20260503054710 | 8 | 0.0 | 0.0 | 0.00 | 0.00 | 0.00 | 83 | 1007.2 | |
| 20260503052709 | 7 | 0.0 | 0.0 | 0.00 | 0.00 | 0.00 | 85 | 1007.2 | |
| 20260503050709 | 7 | 0.0 | 0.0 | 0.00 | 0.00 | 0.00 | 86 | 1007.0 | |
| 20260503044709 | 7 | 0.0 | 0.0 | 0.00 | 0.00 | 0.00 | 87 | 1006.8 | |
| 20260503042709 | 6 | 0.0 | 0.0 | 0.00 | 0.00 | 0.00 | 88 | 1006.7 | |
| 20260503040709 | 6 | 0.0 | 0.0 | 0.00 | 0.00 | 0.00 | 90 | 1006.3 | |
| 20260503034709 | 6 | 0.0 | 0.0 | 0.00 | 0.00 | 0.00 | 91 | 1006.3 | |
| 20260503032709 | 6 | 0.0 | 0.0 | 0.00 | 0.00 | 0.00 | 91 | 1006.1 | |
| 20260503030710 | 5 | 0.0 | 0.0 | 0.00 | 0.00 | 0.00 | 94 | 1005.9 | |
| 20260503024710 | 5 | 0.0 | 0.0 | 0.00 | 0.00 | 0.00 | 93 | 1006.0 | |
| 20260503022709 | 5 | 0.0 | 0.0 | 0.00 | 0.00 | 0.00 | 94 | 1005.9 | |
| 20260503020709 | 5 | 0.0 | 0.0 | 0.00 | 0.00 | 0.00 | 91 | 1005.9 | |
| 20260503014709 | 5 | 0.0 | 0.0 | 0.00 | 0.00 | 0.00 | 92 | 1005.8 | |
| 20260503012709 | 5 | 0.0 | 0.0 | 0.00 | 0.00 | 0.00 | 91 | 1005.9 | |
| 20260503010709 | 5 | 0.0 | 0.0 | 0.00 | 0.00 | 0.00 | 92 | 1005.9 | |
| 20260503004709 | 5 | 0.0 | 0.0 | 0.00 | 0.00 | 0.00 | 90 | 1006.1 | |
| 20260503002709 | 6 | 0.0 | 0.0 | 0.00 | 0.00 | 0.00 | 90 | 1006.2 | |
| 20260503000709 | 6 | 0.0 | 0.0 | 0.00 | 0.00 | 0.00 | 90 | 1006.4 | |
| 20260502234709 | 6 | 0.0 | 0.0 | 0.00 | 0.00 | 0.00 | 89 | 1006.6 | |
| 20260502232709 | 6 | 0.0 | 0.0 | 0.00 | 0.00 | 0.00 | 89 | 1006.7 | |
| 20260502230709 | 6 | 0.0 | 0.0 | 0.00 | 0.00 | 0.00 | 88 | 1007.0 |